Date,TemperatureHighF,TemperatureAvgF,TemperatureLowF,DewpointHighF,DewpointAvgF,DewpointLowF,HumidityHigh,HumidityAvg,HumidityLow,PressureMaxIn,PressureMinIn,WindSpeedMaxMPH,WindSpeedAvgMPH,GustSpeedMaxMPH,PrecipitationSumIn
2013-1-1,18.8,5.4,-6.1,15.8,1.5,-8.5,88,83,68,30.35,30.09,7,1,0,0.00
2013-1-2,20.8,17.2,14.2,18.3,14.4,11.1,92,89,82,30.12,30.00,7,2,0,0.00
2013-1-3,20.8,13.8,10.6,18.1,9.2,4.7,89,82,66,30.31,30.12,12,3,15,0.00
2013-1-4,33.3,22.2,13.9,19.4,15.2,10.4,89,75,55,30.16,30.05,7,1,15,0.00
2013-1-5,27.3,17.7,11.6,16.7,12.6,9.0,92,81,60,30.13,29.88,8,1,0,0.00
2013-1-6,25.7,16.9,10.4,15.4,10.8,5.2,89,77,54,30.27,30.05,13,2,13,0.00
2013-1-7,38.9,29.2,17.1,26.2,22.3,12.7,86,76,59,30.04,29.91,12,2,18,0.01
2013-1-8,35.7,27.2,15.0,28.7,22.8,12.9,94,84,70,30.00,29.77,14,2,18,0.00
2013-1-9,35.2,30.7,25.9,27.8,23.0,20.1,85,73,58,30.37,29.92,20,4,24,0.00
2013-1-10,41.4,34.2,28.3,32.3,25.6,21.0,94,72,47,30.32,29.74,12,3,15,0.28
2013-1-11,41.2,36.8,33.9,40.1,35.6,32.3,96,95,92,29.74,29.36,11,3,14,0.04
2013-1-12,39.2,14.7,3.5,37.0,9.2,-1.6,92,78,68,30.12,29.37,17,5,23,0.00
2013-1-13,6.9,3.7,0.1,1.6,-0.9,-3.9,84,80,76,30.31,30.10,11,2,12,0.00
2013-1-14,14.6,7.8,3.1,5.3,2.2,-0.6,87,78,60,30.48,30.31,9,1,0,0.00
2013-1-15,30.4,19.8,9.7,17.9,12.4,5.3,90,74,49,30.34,29.86,11,2,15,0.00
2013-1-16,35.3,25.7,12.0,31.1,16.8,-4.5,92,70,44,30.27,29.67,13,4,18,0.00
2013-1-17,18.2,12.2,6.4,9.9,2.2,-5.1,76,63,49,30.44,30.27,11,2,12,0.00
2013-1-18,40.7,28.3,16.4,30.3,22.5,9.9,90,79,64,30.34,29.75,14,2,19,0.01
2013-1-19,37.5,22.5,1.2,30.5,16.7,-5.3,93,78,56,30.25,29.67,28,5,36,0.00
2013-1-20,6.3,0.9,-3.5,-0.2,-5.8,-10.3,80,71,58,30.47,30.26,15,5,19,0.00
2013-1-21,-3.6,-8.0,-12.0,-10.3,-14.2,-18.2,75,68,60,30.44,30.35,19,5,19,0.00
2013-1-22,3.4,-5.2,-13.4,-3.6,-11.7,-17.2,76,69,59,30.51,30.33,8,1,0,0.00
2013-1-23,14.3,5.3,-6.4,6.7,-3.0,-14.8,85,67,50,30.69,30.23,24,2,25,0.00
2013-1-24,12.1,0.7,-7.7,1.7,-7.9,-15.2,67,63,59,30.76,30.23,10,1,15,0.00
2013-1-25,17.6,12.3,3.1,10.8,4.1,-3.0,79,69,60,30.37,30.00,18,5,23,0.00
2013-1-26,23.5,12.0,-1.1,12.4,3.6,-4.7,86,69,53,30.41,30.17,10,2,14,0.00
2013-1-27,32.4,28.6,23.0,29.1,22.0,12.3,93,77,61,30.17,29.81,10,1,16,0.00
2013-1-28,35.1,31.5,29.1,32.6,29.9,27.5,96,94,90,29.91,29.64,8,0,0,0.24
2013-1-29,35.5,31.7,27.0,31.5,28.5,21.7,96,88,80,29.76,29.52,10,2,14,0.15
2013-1-30,27.1,16.6,7.0,21.7,10.8,1.0,83,77,71,29.79,29.66,21,5,21,0.00
2013-1-31,6.8,0.2,-8.6,0.8,-5.8,-14.6,80,73,66,30.35,29.80,19,6,23,0.00
2013-2-1,2.6,-4.7,-13.4,-1.5,-10.4,-17.1,83,72,51,30.40,30.15,9,1,0,0.00
2013-2-2,15.1,5.7,-0.7,6.1,-0.1,-4.4,86,76,56,30.26,30.03,6,0,0,0.00
2013-2-3,12.3,8.9,2.2,6.9,3.4,-1.7,87,78,67,30.14,30.03,12,2,15,0.00
2013-2-4,15.5,9.7,1.4,10.4,2.3,-3.6,88,72,55,30.14,29.79,10,1,0,0.00
2013-2-5,30.4,21.1,6.5,23.2,15.4,3.5,92,79,52,30.11,29.69,14,2,14,0.01
2013-2-6,25.9,16.1,4.9,20.8,12.4,2.1,90,85,77,30.14,29.98,4,0,0,0.00
2013-2-7,27.5,25.1,23.2,23.3,21.4,20.5,92,86,78,30.28,30.03,4,0,0,0.00
2013-2-8,32.3,21.8,9.5,20.6,14.8,6.9,91,75,49,30.42,30.25,10,1,14,0.00
2013-2-9,31.2,27.8,23.6,27.7,24.4,19.8,92,87,83,30.25,29.95,18,5,21,0.00
2013-2-10,32.6,30.0,27.2,31.1,27.8,24.5,95,92,87,29.95,29.29,11,1,13,0.00
2013-2-11,29.2,24.3,16.5,27.9,19.8,12.4,95,83,73,30.06,29.34,19,6,26,0.00
2013-2-12,35.2,24.0,13.7,23.7,17.9,10.3,87,78,60,30.06,29.82,13,2,13,0.00
2013-2-13,40.8,28.9,21.0,30.6,24.1,17.8,94,83,61,29.83,29.57,7,1,0,0.04
2013-2-14,32.1,25.3,13.2,30.6,17.9,3.7,94,75,41,30.20,29.60,17,2,19,0.01
2013-2-15,18.8,10.7,3.9,5.1,2.1,-0.8,82,68,49,30.35,30.20,13,3,20,0.00
2013-2-16,23.8,10.0,1.3,8.9,3.0,-2.1,85,74,48,30.31,30.17,6,0,0,0.00
2013-2-17,31.5,21.0,5.9,21.4,14.0,1.3,84,74,63,30.17,29.66,18,4,23,0.00
2013-2-18,32.2,22.6,8.4,29.3,17.3,2.3,89,80,73,29.83,29.53,22,5,26,0.00
2013-2-19,9.5,4.8,1.0,2.5,-3.3,-6.1,80,67,55,30.43,29.83,19,6,24,0.00
2013-2-20,22.5,6.4,-5.9,6.0,-1.5,-8.8,85,69,47,30.55,30.43,7,0,0,0.01
2013-2-21,28.1,14.5,0.9,15.1,6.3,-2.9,86,70,49,30.53,30.15,4,0,0,0.00
2013-2-22,32.9,23.8,19.5,24.5,19.4,14.7,90,83,67,30.16,29.88,5,0,0,0.02
2013-2-23,33.2,24.4,19.1,24.8,20.0,16.9,92,84,69,29.98,29.86,7,1,0,0.00
2013-2-24,38.5,23.8,10.7,23.6,17.5,8.6,92,78,55,30.13,29.99,6,0,0,0.06
2013-2-25,40.4,28.6,19.7,25.4,21.4,16.6,89,75,53,30.13,30.05,4,0,0,0.01
2013-2-26,41.0,26.9,14.6,29.2,21.6,12.5,92,81,61,30.08,29.90,5,0,0,0.00
2013-2-27,41.9,31.9,27.7,27.2,24.7,21.8,84,75,53,30.05,29.89,12,1,19,0.00
2013-2-28,30.0,28.0,23.3,22.9,20.7,16.2,80,74,68,30.25,30.04,5,0,0,0.00
2013-3-1,36.9,25.2,15.2,20.6,16.1,10.0,80,69,48,30.39,30.25,6,0,0,0.00
2013-3-2,38.0,21.1,6.2,14.2,9.4,3.7,90,64,27,30.40,30.20,6,0,0,0.00
2013-3-3,38.5,26.4,16.9,13.2,10.8,7.7,75,53,33,30.20,30.01,13,1,16,0.00
2013-3-4,27.4,25.2,23.1,22.0,17.3,7.9,91,73,44,30.07,29.97,9,0,0,0.00
2013-3-5,32.1,25.9,21.2,26.4,22.2,17.4,92,86,74,30.33,30.00,1,0,0,0.00
2013-3-6,31.6,21.8,12.6,20.9,16.3,9.7,89,79,62,30.45,30.33,6,0,0,0.02
2013-3-7,36.7,22.1,7.0,20.2,13.9,4.2,91,72,48,30.43,30.32,11,1,18,0.03
2013-3-8,44.9,30.7,20.6,30.5,23.8,16.6,87,76,55,30.36,30.10,12,3,14,0.16
2013-3-9,36.7,34.9,32.6,35.1,32.7,28.0,95,92,76,30.10,29.70,11,2,13,0.49
2013-3-10,34.1,32.5,29.2,32.7,28.8,24.4,95,86,81,29.97,29.78,9,1,0,0.01
2013-3-11,29.7,27.1,22.3,24.4,21.7,17.9,85,80,69,29.89,29.76,12,2,14,0.00
2013-3-12,29.5,24.0,20.3,18.0,14.6,9.7,84,68,46,30.22,29.85,21,4,22,0.00
2013-3-13,27.8,16.7,11.6,14.1,11.1,8.7,88,79,53,30.42,30.22,10,2,0,0.00
2013-3-18,28.4,20.7,11.6,26.3,15.5,5.5,92,80,69,29.84,29.62,20,6,25,0.00
2013-3-19,21.5,12.5,5.3,7.3,2.1,-2.8,78,63,41,30.24,29.84,19,6,25,0.00
2013-3-20,21.4,12.1,4.7,5.2,0.3,-3.2,69,59,47,30.27,30.16,20,6,24,0.00
2013-3-21,32.0,16.2,3.2,12.3,5.6,-1.3,85,64,41,30.18,30.08,10,1,0,0.01
2013-3-22,41.7,23.7,8.6,16.5,11.2,4.3,87,61,33,30.14,30.06,5,0,0,0.01
2013-3-23,40.9,28.7,15.7,20.1,16.8,11.6,86,62,39,30.18,30.10,7,0,0,0.00
2013-3-24,34.4,29.8,27.4,25.1,22.2,20.0,84,73,62,30.12,30.00,4,0,0,0.00
2013-3-25,39.4,27.9,21.3,21.8,17.9,14.9,76,67,43,30.17,30.07,11,2,16,0.00
2013-3-28,48.6,35.3,19.7,25.5,21.1,16.5,89,60,32,30.36,30.28,9,1,0,0.00
2013-3-29,51.9,39.7,27.4,35.9,30.0,21.8,81,69,49,30.30,30.07,11,2,15,0.00
2013-3-30,53.4,43.6,35.6,42.9,37.4,31.4,93,79,63,30.07,29.83,11,3,14,0.40
2013-3-31,38.5,33.4,23.4,31.4,22.7,11.2,91,67,36,30.10,29.79,20,6,30,0.00
2013-4-1,33.7,24.5,16.5,17.5,13.1,10.4,77,62,40,30.29,30.10,16,5,19,0.00
2013-4-2,40.4,27.0,17.9,18.2,14.4,8.1,84,62,32,30.39,30.28,11,2,15,0.00
2013-4-3,46.2,33.9,17.3,31.3,21.2,13.6,88,62,34,30.43,30.05,21,4,22,0.00
2013-4-4,50.9,42.8,32.2,33.2,27.6,21.2,79,56,37,30.17,30.00,16,4,20,0.00
2013-4-5,47.7,33.4,22.9,31.9,23.7,16.9,91,70,32,30.26,29.92,12,1,14,0.06
2013-4-6,51.6,40.6,35.1,42.0,33.7,27.9,92,77,55,29.92,29.51,17,3,18,0.18
2013-4-7,53.0,40.5,33.6,38.0,33.5,30.0,91,77,52,29.95,29.74,11,1,12,0.14
2013-4-8,44.4,40.8,38.9,41.7,38.7,35.5,96,92,87,30.06,29.68,4,0,0,0.66
2013-4-9,46.9,38.0,33.3,35.8,31.2,24.8,88,77,58,30.19,29.98,6,1,0,0.13
2013-4-10,39.6,34.7,29.6,29.8,26.4,23.6,92,72,55,30.21,29.92,5,0,0,0.11
2013-4-11,35.8,33.0,29.8,31.6,28.7,22.7,93,85,61,29.93,29.70,5,0,0,0.40
2013-4-12,36.5,30.8,27.3,29.0,26.9,24.8,93,86,69,29.86,29.69,9,1,0,0.11
2013-4-13,36.0,30.8,26.1,27.8,25.2,22.1,93,80,65,29.98,29.84,12,2,15,0.10
2013-4-14,35.9,31.3,25.8,34.3,27.7,22.2,95,87,74,29.97,29.51,9,1,13,0.55
2013-4-15,38.9,35.4,31.8,34.1,28.9,25.4,93,77,67,29.98,29.53,16,5,20,0.25
2013-4-16,48.3,37.6,32.5,30.5,27.7,26.4,80,68,46,30.33,29.96,14,3,18,0.00
2013-4-17,42.3,36.8,33.1,34.0,30.0,26.4,93,76,65,30.33,29.89,5,0,0,0.11
2013-4-18,34.1,31.7,30.1,32.3,30.0,28.9,96,94,90,29.95,29.51,11,1,15,0.09
2013-4-19,37.7,31.5,28.0,29.0,25.1,15.4,96,79,54,30.01,29.49,20,4,22,0.21
2013-4-20,45.5,31.9,18.5,22.1,14.6,9.0,80,52,24,30.32,30.01,9,1,0,0.13
2013-4-21,48.0,39.6,32.6,45.2,34.4,17.7,94,82,52,30.32,30.01,17,4,23,0.20
2013-4-22,47.9,37.0,31.4,36.6,32.1,28.8,95,83,54,30.22,30.12,8,1,0,0.03
2013-4-23,43.7,34.1,27.0,30.1,25.2,17.8,95,73,40,30.17,30.07,14,2,15,0.50
2013-4-24,50.8,36.7,26.9,34.2,27.4,22.1,89,72,35,30.08,29.91,18,3,25,0.00
2013-4-25,51.4,40.6,31.0,32.7,28.1,23.2,89,64,35,30.21,29.98,13,3,14,0.00
2013-4-26,72.8,57.5,45.5,44.5,37.9,28.8,71,50,29,30.10,29.95,17,3,24,0.00
2013-4-27,74.4,59.3,38.6,47.2,37.1,31.3,83,49,22,30.11,29.85,12,2,14,0.00
2013-4-28,80.0,64.6,52.3,53.8,47.2,44.0,91,56,31,29.85,29.58,21,4,25,0.08
2013-4-29,80.6,62.7,47.6,56.7,45.4,34.8,92,57,27,29.79,29.50,11,1,14,0.00
2013-4-30,69.4,63.9,56.1,58.4,45.5,27.4,79,54,24,29.92,29.35,18,4,20,0.00
2013-5-1,56.0,40.8,32.5,39.2,33.2,28.0,94,76,46,30.49,29.93,15,2,18,0.21
2013-5-2,48.3,39.9,35.2,30.1,27.4,25.3,74,61,44,30.55,30.42,15,2,19,0.00
2013-5-3,37.0,33.7,31.4,33.0,28.8,24.3,91,82,63,30.43,30.17,7,1,0,0.18
2013-5-4,47.9,39.0,32.1,41.5,35.3,29.9,93,87,77,30.19,30.13,4,0,0,0.05
2013-5-5,70.7,51.1,37.2,49.7,41.5,34.0,89,72,46,30.19,30.05,7,0,0,0.00
2013-5-6,77.4,59.4,41.8,49.3,44.6,39.4,93,62,33,30.10,29.97,7,0,0,0.00
2013-5-7,79.5,64.9,48.5,50.9,45.5,37.9,88,55,24,30.03,29.91,12,1,16,0.00
2013-5-8,79.9,65.4,56.3,56.8,51.1,44.3,91,63,31,29.97,29.90,9,0,16,0.23
2013-5-9,57.6,52.1,41.5,54.9,46.7,30.6,91,82,64,30.10,29.91,6,0,0,0.05
2013-5-10,67.1,51.7,34.3,40.5,28.6,19.1,79,47,17,30.13,29.85,8,1,0,0.00
2013-5-11,57.6,46.0,40.0,39.2,26.6,19.7,65,48,32,30.17,29.85,21,6,26,0.01
2013-5-12,59.2,45.6,32.4,29.7,21.7,14.0,69,42,18,30.23,30.08,12,2,16,0.00
2013-5-13,70.9,54.5,34.3,47.4,34.7,23.1,81,50,27,30.10,29.61,20,3,24,0.02
2013-5-14,96.4,72.9,49.1,53.9,45.5,26.7,86,45,11,29.66,29.40,24,3,27,0.00
2013-5-15,79.6,67.4,52.9,49.1,45.8,41.2,75,48,29,29.87,29.62,16,2,21,0.00
2013-5-16,87.0,71.3,52.7,51.4,43.4,26.9,87,42,19,29.88,29.77,5,0,0,0.00
2013-5-17,67.9,59.5,55.8,54.5,49.4,29.5,90,73,24,29.95,29.84,7,0,0,0.13
2013-5-18,80.8,65.2,54.3,66.3,58.6,52.3,96,81,55,29.97,29.75,14,2,18,0.02
2013-5-19,82.0,68.8,62.8,66.5,63.0,60.8,95,83,55,29.76,29.51,16,2,26,1.48
2013-5-20,71.5,66.0,60.7,62.2,59.5,56.1,96,81,60,29.53,29.45,17,2,20,0.33
2013-5-21,60.4,53.8,45.9,58.4,52.0,44.3,96,94,90,29.70,29.48,2,0,0,0.15
2013-5-22,52.5,48.4,44.1,49.0,45.7,42.5,96,91,80,29.99,29.69,4,0,0,0.06
2013-5-23,68.0,53.9,42.2,43.9,35.8,26.9,88,55,26,30.33,29.99,7,0,0,0.00
2013-5-24,70.1,55.2,37.5,51.9,38.4,30.4,89,56,31,30.38,30.17,15,1,15,0.16
2013-5-25,62.8,55.8,52.0,51.4,48.7,44.0,93,78,51,30.25,30.19,17,2,22,0.09
2013-6-10,61.2,61.0,60.8,58.5,58.4,58.2,91,91,91,29.80,29.79,0,0,0,0.00
2013-6-11,75.0,66.6,55.4,68.6,62.4,54.0,96,87,72,29.85,29.75,5,0,0,0.00
2013-6-12,74.0,65.2,58.5,67.1,59.7,52.4,97,83,63,29.89,29.68,9,0,0,0.90
2013-6-13,82.3,68.5,55.9,58.4,54.3,50.1,82,62,41,30.06,29.89,6,0,0,0.00
2013-6-14,78.7,69.7,57.2,61.7,57.1,50.8,82,65,53,30.05,29.82,14,2,17,0.00
2013-6-15,76.2,69.1,61.9,67.8,64.0,60.2,95,84,71,29.89,29.79,9,1,13,0.90
2013-6-16,85.1,69.7,54.9,60.1,53.8,43.8,97,64,25,29.88,29.78,26,2,27,0.00
2013-6-17,81.2,69.4,58.4,62.0,56.7,52.6,93,66,40,29.98,29.81,10,1,14,0.00
2013-6-18,80.2,66.1,51.8,61.0,54.0,45.3,80,66,46,30.05,29.97,3,0,0,0.00
2013-6-19,85.3,72.4,58.3,63.2,58.2,53.1,85,63,37,30.02,29.89,9,1,0,0.00
2013-6-20,89.3,79.7,70.5,69.2,63.5,59.6,76,59,42,29.94,29.80,12,2,18,0.00
2013-6-21,82.9,72.1,62.4,69.2,65.2,60.0,97,81,58,30.06,29.63,22,1,31,2.26
2013-6-22,67.5,66.2,65.5,66.6,64.4,63.4,97,94,92,29.91,29.82,8,2,0,0.25
2013-6-23,82.2,77.8,69.2,67.4,65.6,62.5,87,67,52,29.82,29.72,10,2,17,0.52
2013-6-24,84.3,73.5,63.4,72.2,66.4,61.7,96,79,57,29.85,29.74,7,1,13,0.04
2013-6-25,89.8,76.5,65.0,72.6,67.6,61.8,91,75,53,29.78,29.64,12,1,14,0.00
2013-6-26,86.5,78.6,70.2,76.1,70.4,64.9,96,77,53,29.75,29.59,18,2,31,0.36
2013-6-27,84.7,77.2,68.2,66.8,61.3,54.3,91,61,36,29.75,29.72,21,3,29,0.00
2013-6-28,76.8,70.1,64.5,65.7,60.6,57.4,91,72,57,29.75,29.69,18,4,20,0.05
2013-6-29,77.5,68.6,61.4,62.8,58.1,51.1,95,72,43,29.95,29.70,7,1,0,0.60
2013-6-30,84.9,70.0,56.1,60.2,54.4,49.9,88,61,35,30.07,29.95,7,0,0,0.00
2013-7-1,86.8,73.0,59.9,61.5,57.9,53.3,94,63,35,30.14,30.07,5,0,0,0.00
2013-7-2,87.4,72.2,57.8,59.3,55.1,48.8,85,58,33,30.12,30.00,6,0,0,0.00
2013-7-3,89.0,72.3,58.2,59.1,54.2,47.0,92,58,28,30.02,29.90,5,0,0,0.00
2013-7-4,88.3,77.5,65.2,61.3,56.9,52.7,74,51,31,29.92,29.79,14,2,14,0.00
2013-7-5,87.0,80.3,72.2,63.9,60.6,55.9,62,52,41,29.84,29.73,20,4,21,0.00
2013-7-6,89.8,81.1,74.7,67.5,63.5,61.0,64,56,43,29.81,29.72,16,2,16,0.00
2013-7-7,92.5,80.7,69.3,71.3,67.6,63.3,94,66,47,29.82,29.74,7,1,0,0.10
2013-7-8,85.1,72.5,62.9,71.2,66.3,60.9,95,82,58,29.95,29.82,6,1,0,0.00
2013-7-9,82.4,74.8,68.2,71.6,69.1,66.5,96,83,69,29.91,29.68,13,2,22,0.46
2013-8-29,88.9,84.7,81.9,72.6,71.6,69.7,73,65,55,29.81,29.77,7,1,0,0.16
2013-8-30,86.7,77.3,69.5,72.4,67.0,62.3,87,72,52,29.87,29.74,7,0,0,0.00
2013-8-31,88.1,73.8,63.1,68.9,64.7,60.4,92,75,48,29.84,29.65,15,1,21,0.13
2013-9-1,72.0,67.6,60.6,65.6,59.6,53.3,91,76,65,29.94,29.65,13,2,18,0.00
2013-9-2,65.8,59.3,53.6,53.7,52.1,49.6,91,77,64,30.07,29.93,8,1,0,0.00
2013-9-3,76.0,62.7,49.1,60.3,54.2,47.4,96,76,50,30.08,29.96,7,1,0,0.00
2013-9-4,88.8,71.3,59.4,66.8,61.2,56.8,94,73,45,30.11,29.97,5,0,0,0.00
2013-9-5,81.8,68.7,59.6,65.8,58.8,52.3,79,71,54,30.18,30.05,5,0,0,0.00
2013-9-6,90.9,79.5,70.3,68.4,66.0,62.5,89,66,42,30.05,29.80,13,2,17,0.00
2013-9-7,95.8,80.9,70.1,72.0,67.3,60.1,88,65,40,29.95,29.78,4,0,0,0.00
2013-9-8,77.5,69.0,64.5,64.7,59.3,53.1,81,71,59,30.00,29.83,10,0,0,0.00
2013-9-9,91.5,77.4,69.1,73.7,68.9,64.1,91,77,51,29.84,29.56,9,1,12,0.01
2013-9-10,80.3,73.2,67.4,71.7,64.6,59.3,89,75,50,29.93,29.69,8,1,12,0.00
2013-9-11,83.7,72.6,62.8,62.9,57.4,49.2,92,62,31,30.01,29.92,14,2,17,0.00
2013-9-12,73.9,63.9,53.9,56.2,49.8,45.0,88,62,40,30.20,30.00,15,1,17,0.00
2013-9-13,72.5,58.8,45.5,47.8,45.0,42.6,92,63,36,30.26,30.05,6,0,0,0.00
2013-9-14,71.2,60.1,53.3,57.1,49.4,44.4,94,70,45,30.06,29.86,8,1,14,0.49
2013-9-15,66.4,57.7,48.1,57.4,53.5,44.6,96,86,67,30.30,29.86,4,0,0,0.19
2013-9-16,71.0,54.3,40.7,46.3,40.8,29.5,95,66,26,30.40,30.23,7,0,0,0.00
2013-9-17,66.8,56.1,47.7,53.9,46.8,41.9,85,71,62,30.24,30.02,15,2,19,0.00
2013-9-27,84.2,73.9,66.6,65.0,61.3,59.2,78,66,47,29.87,29.74,18,3,22,0.00
2013-9-28,73.9,61.3,47.9,62.9,54.2,45.1,93,78,62,29.90,29.57,18,3,23,0.17
2013-9-29,76.2,61.0,47.2,48.4,45.0,42.3,90,60,32,29.94,29.75,12,2,17,0.00
2013-9-30,79.1,68.4,60.5,53.5,50.1,45.9,63,52,39,29.76,29.54,17,4,18,0.00
2013-10-1,74.0,66.1,50.1,53.8,44.8,31.5,76,50,22,29.94,29.53,19,3,19,0.00
2013-10-2,77.1,58.7,44.0,54.4,44.4,35.6,94,66,24,30.02,29.80,12,1,14,0.78
2013-10-3,58.4,56.3,53.9,57.1,54.8,52.5,96,95,93,29.92,29.81,5,0,0,0.10
2013-10-4,55.7,54.4,53.6,53.2,52.7,52.2,96,94,91,29.96,29.91,3,0,0,0.00
2013-10-5,58.0,51.4,43.7,54.1,48.0,42.1,95,88,75,29.77,29.70,6,0,0,0.17
2013-10-6,51.9,46.3,41.5,50.5,44.9,40.2,97,95,91,29.84,29.67,8,1,0,0.07
2013-10-7,66.3,51.5,40.9,50.2,43.7,38.8,98,78,38,29.96,29.82,8,1,0,0.01
2013-10-8,76.8,63.2,49.0,48.8,45.5,42.1,81,55,34,29.95,29.78,15,3,23,0.00
2013-10-9,76.8,66.3,59.8,53.2,50.0,47.7,68,56,41,30.00,29.88,13,3,15,0.00
2013-10-10,78.7,64.3,53.3,55.1,49.3,45.2,74,60,37,30.00,29.84,14,2,17,0.00
2013-10-11,74.1,66.4,57.7,60.9,54.4,51.0,85,66,51,29.84,29.58,22,3,25,0.01
2013-10-12,61.5,50.7,45.5,56.6,43.6,40.0,86,77,63,30.16,29.64,16,3,19,0.00
2013-10-13,62.2,47.3,34.7,41.2,37.4,32.7,95,72,37,30.43,30.15,8,0,0,0.00
2013-10-14,55.3,47.8,39.3,46.2,39.9,36.9,92,75,54,30.40,29.97,5,0,0,0.45
2013-10-15,53.0,49.1,45.1,51.6,47.5,43.8,96,94,91,29.97,29.66,7,1,0,1.13
2013-10-16,53.9,45.1,38.3,43.8,39.7,34.6,95,83,51,29.94,29.81,10,2,0,0.01
2013-10-17,56.5,45.9,39.0,45.3,39.9,35.2,94,80,55,29.87,29.76,13,2,15,0.43
2013-10-18,51.2,43.4,36.7,40.3,34.9,28.6,95,74,43,29.97,29.83,14,2,14,0.16
2013-10-19,43.9,39.2,32.8,39.6,35.4,30.5,93,86,77,29.83,29.68,13,2,15,0.06
2013-10-20,42.7,35.9,30.8,39.1,33.6,29.0,94,91,85,29.88,29.62,13,2,15,0.14
2013-10-21,37.9,34.0,30.2,32.5,24.5,21.1,84,68,57,29.97,29.88,16,4,22,0.00
2013-10-22,39.6,32.8,25.0,32.5,28.3,22.8,92,84,68,30.04,29.96,6,0,0,0.00
2013-10-23,36.9,33.9,32.2,31.1,25.7,20.4,92,73,58,30.12,30.01,13,2,12,0.01
2013-10-24,41.0,36.5,31.9,31.7,27.4,21.8,83,70,57,30.32,30.12,13,2,13,0.00
2013-10-25,57.4,43.9,29.6,43.1,34.5,26.8,91,71,55,30.32,29.76,13,2,13,0.00
2013-10-26,51.0,41.9,35.6,42.3,30.5,27.8,76,64,54,30.10,29.77,17,4,17,0.00
2013-10-27,57.4,42.2,31.9,36.1,30.7,26.7,83,65,42,30.14,29.81,9,1,0,0.00
2013-10-28,49.1,36.6,29.2,30.1,24.8,20.0,83,64,35,30.44,30.14,3,0,0,0.00
2013-10-29,39.5,35.8,28.9,35.4,29.0,23.2,92,76,67,30.43,30.10,2,0,0,0.10
2013-10-30,48.8,44.0,37.5,48.0,42.6,35.4,97,95,92,30.10,29.65,4,0,0,0.09
2013-10-31,48.9,42.3,39.0,48.1,40.6,37.0,97,94,89,29.65,29.38,10,2,0,0.03
2013-11-1,49.9,41.9,37.5,38.3,36.1,32.4,93,81,60,29.85,29.40,14,2,14,0.00
2013-11-2,48.6,38.5,31.2,36.0,31.1,28.1,90,76,50,30.10,29.84,9,1,0,0.00
2013-11-3,56.3,44.6,31.7,35.8,32.8,29.1,91,64,44,30.12,29.88,23,3,23,0.00
2013-11-4,48.0,43.6,33.7,43.6,37.0,32.2,94,78,59,30.14,29.81,17,3,17,0.14
2013-11-5,45.4,35.0,28.0,33.5,29.8,26.3,96,83,51,30.25,30.03,5,0,0,0.03
2013-11-6,37.7,32.6,29.2,30.9,27.4,23.8,95,81,63,30.17,30.03,12,2,0,0.18
2013-11-7,36.0,29.2,24.0,30.1,26.1,22.3,94,88,78,30.25,30.17,8,1,0,0.01
2013-11-8,44.9,34.8,22.4,38.5,28.3,20.7,95,78,58,30.21,29.59,17,2,17,0.01
2013-11-9,43.1,40.1,36.0,38.5,32.6,27.0,86,75,62,30.19,29.62,20,6,20,0.00
2013-11-10,42.0,37.1,31.6,31.3,28.9,25.8,80,72,60,30.33,30.10,12,2,0,0.00
2013-11-11,36.7,23.9,14.1,31.2,13.4,7.7,81,64,46,30.75,30.12,15,2,15,0.00
2013-11-12,28.7,19.2,10.7,14.7,9.4,6.0,82,66,42,30.82,30.48,8,2,0,0.00
2013-11-13,25.6,23.6,22.0,16.3,14.5,13.5,72,68,65,30.48,30.22,13,2,13,0.00
2013-11-21,37.4,29.4,23.8,35.8,25.1,15.3,94,84,69,30.53,30.08,14,2,14,0.00
2013-11-22,33.5,21.9,12.0,16.1,10.2,3.0,83,63,33,30.67,30.47,18,4,18,0.00
2013-11-23,17.5,10.7,5.0,4.4,-0.5,-99.9,83,66,43,30.89,30.67,15,3,15,0.00
2013-11-24,30.7,20.1,6.7,16.6,-16.1,-99.9,82,65,49,30.72,30.01,16,4,16,0.00
2013-11-25,37.1,32.6,27.2,28.2,23.6,16.7,82,69,60,30.09,29.92,20,5,20,0.00
2013-11-26,28.6,19.3,12.7,19.8,7.6,2.3,74,60,49,30.42,30.09,21,5,21,0.00
2013-11-27,23.5,16.5,6.9,10.6,7.5,3.9,87,68,54,30.43,30.11,13,2,13,0.00
2013-11-28,26.2,20.4,9.8,15.1,11.6,7.0,88,69,57,30.55,30.10,13,2,13,0.00
2013-11-29,31.4,21.9,7.5,21.5,14.6,4.9,89,74,57,30.55,30.16,16,3,16,0.00
2013-11-30,38.5,31.0,22.6,27.4,23.9,19.3,90,75,64,30.18,30.04,8,1,0,0.00
2013-12-1,34.4,26.0,17.0,25.5,21.4,15.1,93,83,68,30.21,29.93,5,0,0,0.00
2013-12-2,37.9,32.2,25.6,32.8,28.9,22.3,94,87,76,29.94,29.59,14,1,14,0.17
2013-12-3,34.5,33.4,30.8,33.0,32.0,29.3,95,94,93,29.80,29.59,3,0,0,0.08
2013-12-4,30.8,26.7,13.2,29.2,24.7,9.0,95,92,83,29.79,29.48,2,0,0,0.00
2013-12-5,13.1,5.1,-1.7,8.8,-0.1,-5.5,83,78,70,30.40,29.70,0,0,0,0.00
2013-12-6,-1.8,-4.1,-6.3,-5.3,-7.2,-8.8,85,83,82,30.48,30.40,0,0,0,0.00
2013-12-9,0.8,-2.2,-4.8,-4.1,-7.4,-9.1,79,75,67,30.17,29.93,0,0,0,0.00
2013-12-10,8.5,4.3,-0.9,3.8,-0.6,-4.8,88,79,67,30.35,29.83,0,0,0,0.00
2013-12-11,1.9,-4.2,-9.5,-4.3,-9.6,-13.1,78,73,62,30.64,30.35,0,0,0,0.00
2013-12-12,19.3,10.4,0.0,11.0,4.7,-5.2,86,77,63,30.39,30.19,0,0,0,0.00
2013-12-13,17.6,12.9,9.8,11.4,7.5,6.0,86,79,70,30.34,30.18,0,0,0,0.00
2013-12-14,14.1,8.5,-1.4,8.1,4.1,-5.7,86,81,75,30.34,30.13,11,1,0,0.00
2013-12-15,4.3,-0.7,-3.0,-5.8,-7.5,-9.1,79,69,55,30.23,30.15,10,2,0,0.00
2013-12-16,22.0,8.4,-0.2,19.0,3.8,-8.3,92,80,64,30.21,29.94,9,1,0,0.00
2013-12-17,22.1,22.0,21.9,19.4,19.1,18.9,89,88,88,29.94,29.93,2,1,0,0.00
2013-12-19,16.2,15.5,15.1,12.4,10.6,8.7,88,80,74,30.09,30.05,5,0,0,0.00
2013-12-20,20.1,15.5,11.2,13.4,11.4,8.4,88,84,73,30.07,29.89,3,0,0,0.00
2013-12-21,23.4,18.0,13.3,16.3,13.3,9.7,86,82,73,30.04,29.89,4,0,0,0.00
2013-12-22,18.9,13.8,5.7,14.5,10.1,2.3,89,85,78,30.27,29.98,11,2,0,0.00
2013-12-23,5.6,-1.1,-4.0,2.2,-5.4,-8.9,86,79,74,30.58,30.27,11,4,13,0.00
2013-12-24,9.4,-0.2,-13.6,5.4,-4.9,-15.5,88,78,58,30.56,30.20,15,2,15,0.00
2013-12-25,23.9,15.0,8.2,19.7,10.9,4.4,89,84,72,30.20,30.09,14,2,14,0.00
2013-12-26,27.3,19.2,12.5,22.0,15.2,8.9,90,85,78,30.20,30.10,5,0,0,0.00
2013-12-27,40.7,27.6,9.7,31.2,23.6,7.3,93,85,68,30.19,29.90,10,2,0,0.12
2013-12-28,46.4,30.4,18.1,33.4,26.1,14.4,95,85,59,30.02,29.64,15,1,15,0.05
2013-12-29,17.9,-1.5,-13.0,13.9,-8.6,-16.7,84,68,49,30.37,30.02,13,3,14,0.00
2013-12-30,2.4,-10.3,-13.4,-3.3,-13.5,-16.6,82,79,75,30.38,30.27,6,0,0,0.00